Content
SEND FEEDBACK

Daily
Averages
Monthly
Summary
United States of America

EUREKA, CALIFORNIA


Home > North America > United States > California
Elevation: 59 feet     Latitude: 40 48N     Longitude: 124 07W

WEATHER
 
SELECT A DAY
Number of Records: 240,550;   Date Range: 1/1/95 - 8/30/14
 
SHARE

PRINT THIS DATA

[ ← Previous Day ]
WEATHER ALMANAC - JANUARY 23, 2013
[ Next Day → ]
[ °C ]   °F
Weather ElementAverageHighLow
Temperature51.1 °F63 °F (3:53 am)46 °F (1:53 am)
Dewpoint47.1 °F51.8 °F (2:32 pm)24.1 °F (2:53 am)
Humidity89.5 %100 % (2:32 pm)24 % (3:53 am)
Barometer30.01 in30.14 in (10:53 pm)29.81 in (6:53 am)
Wind Speed3.4 mph18.4 mph (6:53 am)
Wind Gust29.9 mph (6:53 am)
Weather ElementAverage
Visibility4.7 mi
Wind DirectionE (91.5 °)

Weather ElementTotal
Precipitation1.52 in
Heating Degree Days10.5 (Base 65)
Growing Degree Days4.5 (Base 50)
Averaged from 47 records on January 23, 2013
WEATHER CONDITIONS BREAKOUT
WIND DIRECTION BREAKOUT
WEATHER BY HOUR - JANUARY 23, 2013
[ °C ]   °F
Local TimeTemperatureDewpointHumidityBarometerVisibilityWind DirectionWind SpeedGust SpeedPrecipitationEventsConditions
1:53 AM46.0 °F39.9 °F79 %29.87 in6.0 miSE (130°)4.6 mphHaze
2:53 AM60.1 °F24.1 °F25 %29.85 in10.0 miVariable6.9 mphOvercast
3:53 AM63.0 °F25.0 °F24 %29.83 in10.0 miSSE (160°)9.2 mphOvercast
4:53 AM62.1 °F35.1 °F37 %29.82 in10.0 miSSE (160°)10.4 mphOvercast
5:53 AM57.9 °F44.1 °F60 %29.82 in10.0 miSouth (190°)3.5 mph0.00 inRainLight Rain
6:53 AM60.1 °F48.0 °F64 %29.81 in10.0 miSE (140°)18.4 mph29.9 mph0.01 inOvercast
7:53 AM60.1 °F48.9 °F67 %29.81 in10.0 miSSE (150°)11.5 mph0.00 inRainLight Rain
8:53 AM57.0 °F51.1 °F81 %29.85 in10.0 miSSW (210°)10.4 mph0.01 inRainLight Rain
9:53 AM55.9 °F51.1 °F84 %29.89 in6.0 miSouth (180°)9.2 mph0.04 inRainLight Rain
10:53 AM57.0 °F50.0 °F77 %29.91 in10.0 miSSE (150°)8.1 mph21.9 mph0.02 inRainLight Rain
11:53 AM55.9 °F46.9 °F72 %29.93 in10.0 miSSE (150°)11.5 mph19.6 mph0.01 inRainLight Rain
12:53 PM55.0 °F48.9 °F80 %29.94 in10.0 miSSE (160°)8.1 mph0.01 inRainLight Rain
1:53 PM52.0 °F48.9 °F89 %29.95 in5.0 miSSE (160°)6.9 mph0.07 inRainLight Rain
2:32 PM51.8 °F51.8 °F100 %29.94 in1.8 miCalm0.05 inRainLight Rain
2:49 PM51.8 °F51.8 °F100 %29.94 in3.0 miCalm0.07 inRainLight Rain
2:53 PM52.0 °F51.1 °F97 %29.96 in5.0 miCalm0.07 inRainLight Rain
3:27 PM51.8 °F51.8 °F100 %29.97 in1.5 miNNW (330°)5.8 mph0.05 inRainRain
3:36 PM50.0 °F48.2 °F94 %29.98 in0.8 miNW (320°)6.9 mph0.05 inRainLight Rain
3:53 PM50.0 °F48.9 °F96 %30.00 in1.2 miCalm0.06 inRainLight Rain
4:00 PM50.0 °F48.2 °F94 %29.99 in3.0 miNW (320°)3.5 mph0.00 inRainLight Rain
4:26 PM50.0 °F48.2 °F94 %30.01 in3.0 miNNW (330°)5.8 mph0.03 inRainRain
4:34 PM48.2 °F48.2 °F100 %30.02 in2.5 miNW (310°)4.6 mph0.05 inRainRain
4:53 PM48.9 °F48.0 °F97 %30.05 in2.5 miNW (320°)3.5 mph0.07 inRainRain
4:59 PM48.2 °F48.2 °F100 %30.03 in3.0 miNE (50°)3.5 mph0.01 inRainRain
5:53 PM48.9 °F48.0 °F97 %30.07 in4.0 miCalm0.14 inRainRain
6:35 PM48.2 °F48.2 °F100 %30.06 in5.0 miCalm0.10 inRainRain
6:53 PM48.0 °F48.0 °F100 %30.07 in6.0 miCalm0.12 inRainLight Rain
7:14 PM48.2 °F48.2 °F100 %30.06 in6.0 miCalm0.01 inRainLight Rain
7:53 PM48.0 °F48.0 °F100 %30.08 in8.0 miCalm0.02 inRainLight Rain
8:11 PM48.2 °F48.2 °F100 %30.07 in10.0 miCalm0.00 inOvercast
8:53 PM48.0 °F48.0 °F100 %30.11 in2.0 miCalm0.02 inRainLight Rain
9:02 PM48.2 °F48.2 °F100 %30.09 in1.8 miCalm0.01 inRainLight Rain
9:10 PM48.2 °F48.2 °F100 %30.09 in2.0 miCalm0.02 inRainLight Rain
9:32 PM48.2 °F48.2 °F100 %30.10 in4.0 miCalm0.04 inRainLight Rain
9:44 PM48.2 °F48.2 °F100 %30.10 in5.0 miCalm0.04 inRainLight Rain
9:49 PM48.2 °F48.2 °F100 %30.10 in4.0 miCalm0.04 inRainLight Rain
9:53 PM48.0 °F48.0 °F100 %30.12 in2.5 miCalm0.05 inRainLight Rain
10:09 PM48.2 °F48.2 °F100 %30.10 in1.8 miCalm0.02 inRainLight Rain
10:18 PM48.2 °F48.2 °F100 %30.10 in1.8 miCalm0.03 inRainLight Rain
10:28 PM48.2 °F48.2 °F100 %30.11 in0.8 miCalm0.04 inRainLight Rain
10:41 PM48.2 °F48.2 °F100 %30.11 in0.5 miCalm0.04 inFog-RainLight Rain
10:53 PM48.0 °F48.0 °F100 %30.14 in0.5 miNNW (340°)3.5 mph0.05 inFog-RainLight Rain
11:17 PM48.2 °F48.2 °F100 %30.12 in1.5 miNE (40°)3.5 mph0.01 inRainLight Rain
11:30 PM48.2 °F48.2 °F100 %30.12 in2.5 miCalm0.01 inOvercast
11:41 PM48.2 °F48.2 °F100 %30.12 in3.0 miCalm0.01 inOvercast
11:46 PM48.2 °F48.2 °F100 %30.12 in2.5 miCalm0.01 inOvercast
11:53 PM48.0 °F48.0 °F100 %30.14 in3.0 miCalm0.01 inOvercast
Hourly data recorded from KACV, located miles away from Eureka, California







STORIES FROM OUR PARTNERS